Darstellungsparameter: Aktuell verwendete Einstellungen:
Skalierung der Graphiken ... ?
xyx+y,   Skalierungsfaktor:      Skalierung: Modus: x, Faktor: 1
Darstellungszeitraum ... ?
Vom - - bis: - -   Zeitraum: 12.04.2021 - 12.04.2021
Min/Max/Avg-Anzeige ... ?
Zeige MMA aktuell
Zeige MMA Monat
Zeige MMA alles
Zeige --A aktuell
Zeige --A Monat
Zeige --A alles
Keine MMA-Anzeige
MMA:
Keine MMA-Graphiken
MMA-Basis: 12.04.2021 - 12.04.2021
Quicknavigation für Darstellung... ?
Tage:      1T, 2T, 3T, 5T -1T -2T -3T -5T +1T +2T +3T +5T
Wochen: 1W, 2W, 3W -1W -2W -3W +1W +2W +3W
Monate: 1M, 3M, 6M -1M -3M -6M +1M +3M +6M
Jahre:    1J, 3J, 5J, 10J -1J -3J -5J -10J +1J +3J +5J +10J
Nutze für die Darstellung ... ?
Originaldaten oder Mittelwerte auf ...
Stundenbasis Tagesbasis Wochenbasis
Monatsbasis Jahresbasis      Datenbasis: Original-Daten
Darstellen als:
Statistik (Auto) Statistik J:M      Darstellung:

Der gewünschte Datumsbereich war nicht gültig/verfügbar und wurde korrigiert....
Das angegebene Enddatum (05.09.2024 23:59:59) liegt in der Zukunft.
Das angegebene Startdatum (06.08.2024 00:00:00) liegt in der Zukunft.


Zur Graphik,    zurück zur Übersicht aller Sensoren.
 
Tabellarische Datenbersicht: ?
 
Sensor: Nr:Datum:Temp:Feuchte:Taupunkt:
Aussen-T/F 1 12-04-2021 02:00:00 3.7 C 96 % 3.12 C
2 12-04-2021 02:05:00 3.6 C 96 % 3.02 C
3 12-04-2021 02:10:00 3.6 C 96 % 3.02 C
4 12-04-2021 02:15:00 3.5 C 96 % 2.92 C
5 12-04-2021 02:20:00 3.4 C 95 % 2.68 C
6 12-04-2021 02:25:00 3.3 C 95 % 2.58 C
7 12-04-2021 02:30:00 3.2 C 95 % 2.48 C
8 12-04-2021 02:35:00 3.1 C 95 % 2.38 C
9 12-04-2021 02:40:00 3.1 C 95 % 2.38 C
10 12-04-2021 02:45:00 3 C 95 % 2.28 C
11 12-04-2021 02:50:00 2.9 C 95 % 2.18 C
12 12-04-2021 02:55:00 2.9 C 95 % 2.18 C
13 12-04-2021 03:00:00 2.8 C 96 % 2.23 C
14 12-04-2021 03:05:00 2.8 C 96 % 2.23 C
15 12-04-2021 03:10:00 2.8 C 95 % 2.08 C
16 12-04-2021 03:15:00 2.7 C 95 % 1.98 C
17 12-04-2021 03:20:00 2.7 C 96 % 2.13 C
18 12-04-2021 03:25:00 2.7 C 96 % 2.13 C
19 12-04-2021 03:30:00 2.8 C 96 % 2.23 C
20 12-04-2021 03:35:00 2.8 C 96 % 2.23 C
21 12-04-2021 03:40:00 2.8 C 96 % 2.23 C
22 12-04-2021 03:45:00 2.7 C 96 % 2.13 C
23 12-04-2021 03:50:00 2.7 C 96 % 2.13 C
24 12-04-2021 03:55:00 2.6 C 95 % 1.88 C
25 12-04-2021 04:00:00 2.6 C 95 % 1.88 C
Sensor: Nr:Datum:Temp:Feuchte:Taupunkt:
Aussen-T/F 26 12-04-2021 04:05:00 2.6 C 95 % 1.88 C
27 12-04-2021 04:10:00 2.4 C 95 % 1.68 C
28 12-04-2021 04:15:00 2.4 C 95 % 1.68 C
29 12-04-2021 04:20:00 2.4 C 95 % 1.68 C
30 12-04-2021 04:25:00 2.3 C 95 % 1.58 C
31 12-04-2021 04:30:00 2.3 C 95 % 1.58 C
32 12-04-2021 04:35:00 2.3 C 95 % 1.58 C
33 12-04-2021 04:40:00 2.2 C 95 % 1.48 C
34 12-04-2021 04:45:00 2.1 C 95 % 1.38 C
35 12-04-2021 04:50:00 2 C 95 % 1.29 C
36 12-04-2021 04:55:00 2 C 95 % 1.29 C
37 12-04-2021 05:00:00 1.9 C 95 % 1.19 C
38 12-04-2021 05:05:00 1.9 C 95 % 1.19 C
39 12-04-2021 05:10:00 1.9 C 95 % 1.19 C
40 12-04-2021 05:15:00 1.9 C 95 % 1.19 C
41 12-04-2021 05:20:00 1.9 C 95 % 1.19 C
42 12-04-2021 05:25:00 1.9 C 95 % 1.19 C
43 12-04-2021 05:30:00 1.9 C 95 % 1.19 C
44 12-04-2021 05:35:00 1.8 C 95 % 1.09 C
45 12-04-2021 05:40:00 1.8 C 95 % 1.09 C
46 12-04-2021 05:45:00 1.8 C 95 % 1.09 C
47 12-04-2021 05:50:00 1.8 C 95 % 1.09 C
48 12-04-2021 05:55:00 1.8 C 95 % 1.09 C
49 12-04-2021 06:00:00 1.8 C 95 % 1.09 C
50 12-04-2021 06:05:00 1.7 C 95 % 0.99 C
Sensor: Nr:Datum:Temp:Feuchte:Taupunkt:
Aussen-T/F 51 12-04-2021 06:10:00 1.7 C 95 % 0.99 C
52 12-04-2021 06:15:00 1.7 C 95 % 0.99 C
53 12-04-2021 06:20:00 1.7 C 95 % 0.99 C
54 12-04-2021 06:25:00 1.7 C 95 % 0.99 C
55 12-04-2021 06:30:00 1.7 C 95 % 0.99 C
56 12-04-2021 06:35:00 1.7 C 96 % 1.13 C
57 12-04-2021 06:40:00 1.8 C 96 % 1.23 C
58 12-04-2021 06:45:00 1.8 C 96 % 1.23 C
59 12-04-2021 06:50:00 1.8 C 96 % 1.23 C
60 12-04-2021 06:55:00 1.8 C 96 % 1.23 C
61 12-04-2021 07:00:00 1.8 C 96 % 1.23 C
62 12-04-2021 07:05:00 1.8 C 96 % 1.23 C
63 12-04-2021 07:10:00 1.9 C 96 % 1.33 C
64 12-04-2021 07:15:00 1.9 C 96 % 1.33 C
65 12-04-2021 07:20:00 1.9 C 96 % 1.33 C
66 12-04-2021 07:25:00 1.9 C 96 % 1.33 C
67 12-04-2021 07:30:00 2.1 C 96 % 1.53 C
68 12-04-2021 07:35:00 2.1 C 96 % 1.53 C
69 12-04-2021 07:40:00 2.2 C 96 % 1.63 C
70 12-04-2021 07:45:00 2.2 C 96 % 1.63 C
71 12-04-2021 07:50:00 2.3 C 96 % 1.73 C
72 12-04-2021 07:55:00 2.3 C 96 % 1.73 C
73 12-04-2021 08:00:00 2.3 C 96 % 1.73 C
74 12-04-2021 08:05:00 2.3 C 96 % 1.73 C
75 12-04-2021 08:10:00 2.3 C 96 % 1.73 C
Sensor: Nr:Datum:Temp:Feuchte:Taupunkt:
Aussen-T/F 76 12-04-2021 08:15:00 2.3 C 96 % 1.73 C
77 12-04-2021 08:20:00 2.3 C 96 % 1.73 C
78 12-04-2021 08:25:00 2.2 C 96 % 1.63 C
79 12-04-2021 08:30:00 2.2 C 96 % 1.63 C
80 12-04-2021 08:35:00 2.2 C 96 % 1.63 C
81 12-04-2021 08:40:00 2.2 C 96 % 1.63 C
82 12-04-2021 08:45:00 2.3 C 96 % 1.73 C
83 12-04-2021 08:50:00 2.3 C 96 % 1.73 C
84 12-04-2021 08:55:00 2.5 C 96 % 1.93 C
85 12-04-2021 09:00:00 2.7 C 96 % 2.13 C
86 12-04-2021 09:05:00 2.8 C 96 % 2.23 C
87 12-04-2021 09:10:00 2.9 C 96 % 2.33 C
88 12-04-2021 09:15:00 3.1 C 96 % 2.53 C
89 12-04-2021 09:20:00 3.2 C 96 % 2.63 C
90 12-04-2021 09:25:00 3.3 C 96 % 2.72 C
91 12-04-2021 09:30:00 3.4 C 96 % 2.82 C

Legende:
   Min
   Max


Maximal/Minimal-Werte vom 12.04.2021 - 12.04.2021

Sensor Min Max Avg
Temp
(Aussen-T/F)
1.7 °C
12-04-2021  06:05:00
3.7 °C
12-04-2021  02:00:00
2.38 °C
Feuchte
(Aussen-T/F)
95 %
12-04-2021  02:20:00
96 %
12-04-2021  02:00:00
95.54 %
Taupunkt
(Aussen-T/F)
0.99 C
12-04-2021  06:05:00
3.12 C
12-04-2021  02:00:00
1.72 C

Die Daten stammen von einer Davis Vantage Pro 2 Wetter-Station und werden unter Linux mit der Software wview2wettercgi und aufbereitet. Alle Angaben erfolgen ohne Gewähr für ihre Vollständigkeit oder Richtigkeit.
Kontakt: Rainer Krienke krienke@uni-koblenz.de . Meine Webseiten an der Uni Koblenz oder privat.
Version: $Revision: 0.78 $